Location: ?ukur
(45.2350°N, 16.5008°E)
Time: 21:15:56
(UTC+00:00)

Daily predictions for brighter satellites

Satellite Brightness Start Highest point End
(mag) Time Altitude Azimuth Time Altitude Azimuth Time Altitude Azimuth
CZ-2C R/B 3.5 17:08:35 10° SE 17:13:42 47° ENE 17:19:05 10° N
CZ-4 R/B 1.5 17:12:16 10° SSE 17:16:26 68° ENE 17:20:35 10° N
CZ-2D R/B 3.2 17:13:11 10° SSE 17:17:04 83° ENE 17:20:59 10° N
Cosmos 1782 Rocket 3.8 17:13:27 10° SSW 17:17:52 77° W 17:22:22 10° N
Okean-O 2.6 17:14:20 10° SSE 17:18:46 83° ENE 17:23:14 10° NNW
GP-B 3.9 17:15:58 10° N 17:20:21 59° W 17:24:42 10° SSW
Cosmos 1674 4.2 17:18:59 10° NNE 17:21:47 19° ENE 17:24:33 10° ESE
MOS 1 Rocket 3.9 17:20:58 10° NE 17:24:45 28° E 17:28:26 10° SSE
ARGOS 3.7 17:24:03 10° SE 17:28:55 37° ENE 17:33:51 10° N
In-Cosmos 22 4.2 17:24:06 10° N 17:29:20 55° ENE 17:34:37 10° SSE
NOSS 2-2 (C) 4.1 17:26:28 10° WSW 17:29:52 48° NW 17:33:41 10° NNE
NOSS 3-2 (A) 4.1 17:22:45 10° NW 17:30:17 78° NE 17:38:46 10° SE
Cosmos 1048 Rocket 4.2 17:26:13 10° NNW 17:31:29 56° ENE 17:36:45 10° SE
CZ-2C R/B 3.9 17:28:34 10° NE 17:32:44 21° E 17:36:54 10° SE
Cosmos 1891 Rocket 4.4 17:29:36 10° S 17:35:38 68° E 17:41:39 10° NNE
Cosmos 2082 Rocket 4.2 17:34:24 10° NNE 17:36:20 12° NE 17:38:15 10° ENE
Cosmos 2151 Rocket 3.8 17:34:16 10° SSE 17:38:33 48° E 17:42:53 10° NNE
DMSP B5D1-3 4.5 17:33:36 10° NNE 17:38:41 63° ESE 17:43:43 10° S
Lacrosse 5 rocket 3.7 17:37:45 10° NW 17:40:43 17° N 17:43:45 10° NE
Cosmos 1975 Rocket 4.1 17:36:34 10° NNW 17:40:45 49° W 17:44:54 10° SSW
HJ-1C 3.4 17:40:28 10° SSE 17:43:41 58° ENE 17:46:58 10° N
Cosmos 494 Rocket 4.3 17:39:22 10° N 17:44:29 48° ENE 17:49:33 10° SE
COSMO-SKYMED 1 4.3 17:46:02 10° N 17:50:02 36° WNW 17:54:00 10° SW
Shenzhou-11 Module 3.1 17:50:07 10° SSW 17:51:33 17° SSE 17:51:33 17° SSE
Cosmos 1805 4.0 17:48:28 10° SSE 17:51:53 29° E 17:55:19 10° NNE
Ariane Rocket 3.7 17:47:53 12° SE 17:52:06 35° ENE 17:56:41 10° N
H-2A R/B 1.9 17:47:58 10° SSE 17:52:58 76° ENE 17:58:06 10° N
Nadezhda 4 Rocket 3.9 17:47:36 10° N 17:53:41 64° E 17:59:45 10° SSE
SL-08 RB Rocket 4.2 17:49:50 10° SE 17:54:06 40° ENE 17:58:21 10° N
OBJECT-B 3.0 17:55:36 12° NE 17:55:36 12° NE 17:56:22 10° NE
Exosat Rocket 3.7 17:52:26 10° S 17:57:44 50° ESE 18:02:33 10° NNE
Cosmos 2263 Rocket 4.4 17:54:39 10° WSW 17:59:14 25° NW 18:03:52 10° N
USA 116 4.0 17:56:41 10° N 18:00:22 70° WNW 18:04:30 10° SSW
COSMOS 2406 4.1 17:58:06 10° N 18:03:09 31° NE 18:05:51 21° E
Cosmos 1844 Rocket 2.7 17:57:36 10° SSW 18:03:10 88° WNW 18:08:48 10° NNE
KORONAS-FOTON 4.0 17:59:25 10° N 18:03:16 51° ENE 18:06:24 15° SSE
Cosmos 1707 4.1 18:02:13 10° NNW 18:05:51 41° W 18:09:27 10° SSW
Cosmos 1626 3.2 18:04:21 10° NNE 18:07:27 24° ENE 18:07:28 24° ENE
Cosmos 2278 Rocket 3.8 18:03:25 10° SSE 18:10:00 16° ENE 18:11:38 10° NE
NOSS 3-2 (C) 4.1 18:00:58 10° NW 18:08:32 84° NE 18:16:08 14° SE
Cosmos 2034 Rocket 4.0 18:04:06 10° S 18:10:28 84° E 18:16:49 10° N
Cosmos 1844 3.6 18:04:55 10° SSW 18:10:37 85° ESE 18:16:17 10° NNE
USA 186 2.0 18:11:04 34° SE 18:12:03 49° ENE 18:15:15 10° N
NOSS 3-4 (A) 3.5 18:06:34 10° SSW 18:12:12 50° ESE 18:18:10 10° NE
NOSS 3-4 (C) 3.5 18:06:41 10° SSW 18:12:19 49° ESE 18:18:16 10° NE
ISS -2.1 18:09:50 10° WNW 18:12:51 29° N 18:14:49 17° NE
Meteor 2-5 Rocket 3.9 18:08:24 10° N 18:13:57 51° ENE 18:18:15 17° SE
Lacrosse 4 Rocket 3.3 18:13:54 10° N 18:16:11 14° NE 18:16:33 14° NE
Meteor 1-24 Rocket 4.1 18:11:14 10° N 18:16:32 42° ENE 18:19:25 25° SE
Meteor 2-13 Rocket 4.4 18:12:07 10° N 18:18:16 65° ENE 18:24:21 10° SSE
Okean 1 Rocket 3.0 18:18:00 10° S 18:22:25 65° E 18:26:53 10° NNE
Resurs 01 Rocket 3.0 18:25:52 22° ENE 18:25:52 22° ENE 18:28:55 10° NNE
SL-14 R/B 3.9 18:22:53 10° N 18:26:27 37° ENE 18:26:27 37° ENE
CENTAUR R/B 3.3 18:19:28 10° NW 18:27:38 84° SW 18:34:46 17° SSE
Cosmos 1833 Rocket 3.4 18:23:30 10° NNW 18:28:42 36° NE 18:30:12 31° E
Cosmos 1766 3.1 18:29:34 10° S 18:33:27 74° E 18:37:24 10° NNE
ATLAS 2AS CENTAUR R/B 3.0 18:26:53 10° SSW 18:34:43 68° ESE 18:42:33 10° NE
Cosmos 1634 Rocket 3.9 18:32:07 10° S 18:38:10 63° E 18:44:19 10° NNE
ATLAS 3B R/B 3.0 18:33:14 10° NNW 18:39:53 50° NE 18:42:35 34° E
SPOT 3 Rocket 3.9 18:40:10 41° E 18:40:57 44° ENE 18:45:50 10° N
Abrixas rocket 3.0 18:40:04 10° WNW 18:42:11 41° W 18:42:11 41° W
CREW DRAGON DEMO-1 DEB 3.7 18:41:47 10° WNW 18:44:16 47° WSW 18:44:16 47° WSW
Cosmos 1125 Rocket 4.4 18:41:49 10° SW 18:46:58 50° WNW 18:52:09 10° NNE
Resurs 1-3 3.7 18:48:54 53° ENE 18:48:54 53° ENE 18:53:05 10° N
SJ-6B 2.7 18:48:31 62° SSW 18:49:02 78° WSW 18:52:51 10° NNW
Cosmos 1892 Rocket 3.9 18:47:44 10° N 18:51:25 49° NE 18:51:25 49° NE
Cosmos 2195 Rocket 4.5 18:49:16 10° N 18:55:31 81° W 19:00:07 19° S
Cosmos 1674 4.4 18:53:55 10° NNW 18:57:23 32° W 19:00:17 13° SSW
Cosmos 2026 Rocket 4.0 18:52:00 10° N 18:58:25 89° W 19:02:16 26° S
Cosmos 1092 Rocket 4.2 18:52:24 10° NNW 18:58:33 69° W 19:04:17 12° S
Cosmos 1428 Rocket 4.5 19:00:41 10° N 19:06:58 82° W 19:10:06 31° S
CZ-2C R/B 3.2 19:07:54 10° N 19:13:23 60° WNW 19:18:54 10° SSW
Cosmos 1340 Rocket 3.8 19:15:11 42° NNW 19:15:11 42° NNW 19:18:02 10° N
Cosmos 2279 Rocket 3.8 19:12:59 49° SSE 19:14:42 75° E 19:20:59 10° NNE
Lacrosse 5 rocket 3.1 19:17:19 10° NW 19:20:43 26° NNE 19:20:43 26° NNE
Cosmos 2098 Rocket 4.0 19:15:13 10° N 19:21:19 56° ENE 19:21:19 56° ENE
Cosmos 2082 Rocket 2.6 19:16:19 10° NNW 19:21:17 50° NE 19:21:17 50° NE
BREEZE-M R/B 4.3 19:18:11 10° W 19:24:25 48° NW 19:24:25 48° NW
OBJECT-B 3.4 19:28:48 20° NW 19:28:48 20° NW 19:30:01 10° NNW
Milstar 3 Cent rocket 4.5 19:31:36 10° SW 19:32:39 12° SSW 19:32:39 12° SSW
Terra 4.2 19:42:50 13° NNE 19:42:50 13° NNE 19:43:32 10° NNE
COSMOS 2406 3.9 19:42:13 10° NW 19:47:37 46° WSW 19:47:56 45° WSW
ISS -0.4 19:47:15 10° NW 19:47:46 13° NW 19:47:46 13° NW
Cosmos 2278 Rocket 2.6 19:45:29 10° SW 19:51:33 60° NW 19:56:43 10° NNE
Lacrosse 4 Rocket 3.6 19:51:18 10° NNW 19:52:52 23° NW 19:52:52 23° NW
Cosmos 909 Rocket 4.2 19:54:17 10° NNW 19:59:55 69° NNW 19:59:55 69° NNW
Resurs 01 Rocket 3.5 20:03:27 29° NW 20:03:27 29° NW 20:05:58 10° NNW
Cosmos 2266 Rocket 4.4 19:55:54 10° N 20:00:34 56° N 20:00:34 56° N
Cosmos 1833 Rocket 3.9 20:07:27 10° NW 20:11:54 37° W 20:11:54 37° W
ATLAS 2AS CENTAUR R/B 4.1 20:18:50 10° WSW 20:26:15 40° NW 20:33:33 10° NNE
ATLAS 3B R/B 3.6 20:24:06 10° NW 20:29:50 41° WSW 20:29:50 41° WSW
Cosmos 2082 Rocket 4.4 21:01:01 10° NW 21:03:08 19° WNW 21:03:08 19° WNW
SL-16 R/B 4.4 23:50:37 24° N 23:50:37 24° N 23:53:04 10° N
